TimeCET,TemperatureF,Dew PointF,Humidity,Sea Level PressureIn,VisibilityMPH,Wind Direction,Wind SpeedMPH,Gust SpeedMPH,PrecipitationIn,Events,Conditions,WindDirDegrees,DateUTC
1:00 AM,32,29,86,30.48,10,West,1.2,,,,,260,2013-01-09 00:00:00
6:00 AM,28.4,28.4,100,30.36,5.0,Variable,1.2,-,N/A,,Unknown,0,2013-01-09 05:00:00
6:30 AM,28.4,26.6,93,30.36,4.3,Calm,Calm,-,N/A,,Unknown,0,2013-01-09 05:30:00
7:00 AM,26,24,88,30.48,4,SSE,2.3,,,,Mist,160,2013-01-09 06:00:00
7:00 AM,26.6,24.8,93,30.36,4.3,Variable,1.2,-,N/A,,Partly Cloudy,0,2013-01-09 06:00:00
7:30 AM,28.4,26.6,93,30.36,4.3,Variable,1.2,-,N/A,,Partly Cloudy,0,2013-01-09 06:30:00
8:00 AM,26.6,26.6,100,30.36,2.5,Variable,1.2,-,N/A,Fog,Partly Cloudy,0,2013-01-09 07:00:00
8:30 AM,28.4,26.6,93,30.36,2.5,SSW,3.5,-,N/A,,Partly Cloudy,200,2013-01-09 07:30:00
9:00 AM,28.4,28.4,100,30.39,3.1,Variable,1.2,-,N/A,,Mist,0,2013-01-09 08:00:00
9:30 AM,32.0,30.2,93,30.39,3.1,Calm,Calm,-,N/A,,Mist,0,2013-01-09 08:30:00
10:00 AM,30.2,30.2,100,30.39,3.1,Calm,Calm,-,N/A,,Partly Cloudy,0,2013-01-09 09:00:00
10:30 AM,35.6,32.0,87,30.42,3.7,Calm,Calm,-,N/A,,Partly Cloudy,0,2013-01-09 09:30:00
11:00 AM,37.4,33.8,87,30.42,4.3,Calm,Calm,-,N/A,,Unknown,0,2013-01-09 10:00:00
11:30 AM,39.2,35.6,87,30.42,4.3,Calm,Calm,-,N/A,,Unknown,0,2013-01-09 10:30:00
12:00 PM,41.0,35.6,81,30.42,5.0,Calm,Calm,-,N/A,,Unknown,0,2013-01-09 11:00:00
12:30 PM,44.6,37.4,76,30.39,5.6,Calm,Calm,-,N/A,,Unknown,0,2013-01-09 11:30:00
1:00 PM,45,37,64,30.43,6,Calm,Calm,,,,Mist,,2013-01-09 12:00:00
1:00 PM,44.6,37.4,76,30.39,5.6,Calm,Calm,-,N/A,,Unknown,0,2013-01-09 12:00:00
1:30 PM,46.4,37.4,71,30.39,-9999.0,Variable,1.2,-,N/A,,Clear,0,2013-01-09 12:30:00
2:00 PM,48.2,37.4,66,30.36,-9999.0,Calm,Calm,-,N/A,,Clear,0,2013-01-09 13:00:00
2:30 PM,51.8,39.2,62,30.33,-9999.0,Variable,2.3,-,N/A,,Clear,0,2013-01-09 13:30:00
3:00 PM,51.8,41.0,67,30.33,-9999.0,NW,3.5,-,N/A,,Clear,310,2013-01-09 14:00:00
3:30 PM,53.6,41.0,62,30.33,-9999.0,WNW,4.6,-,N/A,,Clear,290,2013-01-09 14:30:00
4:00 PM,53.6,41.0,62,30.33,6.2,West,3.5,-,N/A,,Partly Cloudy,280,2013-01-09 15:00:00
4:30 PM,55.4,42.8,63,30.33,6.2,West,4.6,-,N/A,,Partly Cloudy,270,2013-01-09 15:30:00
5:00 PM,53.6,41.0,62,30.33,6.2,WNW,6.9,-,N/A,,Partly Cloudy,290,2013-01-09 16:00:00
5:30 PM,53.6,42.8,67,30.33,6.2,West,8.1,-,N/A,,Scattered Clouds,280,2013-01-09 16:30:00
6:00 PM,51.8,42.8,71,30.33,6.2,West,9.2,-,N/A,,Scattered Clouds,280,2013-01-09 17:00:00
6:30 PM,51.8,44.6,76,30.33,6.2,West,8.1,-,N/A,,Scattered Clouds,280,2013-01-09 17:30:00
7:00 PM,51,42,62,30.36,12,West,5.8,,,,Scattered Clouds,280,2013-01-09 18:00:00
7:00 PM,50.0,42.8,76,30.33,6.2,WNW,5.8,-,N/A,,Partly Cloudy,290,2013-01-09 18:00:00
7:30 PM,51.8,42.8,71,30.36,6.2,Calm,Calm,-,N/A,,Scattered Clouds,0,2013-01-09 18:30:00
8:00 PM,46.4,41.0,81,30.36,6.2,Variable,2.3,-,N/A,,Partly Cloudy,0,2013-01-09 19:00:00
8:30 PM,42.8,41.0,93,30.36,6.2,SSW,3.5,-,N/A,,Partly Cloudy,210,2013-01-09 19:30:00
9:00 PM,42.8,39.2,87,30.36,6.2,West,3.5,-,N/A,,Partly Cloudy,270,2013-01-09 20:00:00
9:30 PM,42.8,39.2,87,30.36,6.2,Calm,Calm,-,N/A,,Partly Cloudy,0,2013-01-09 20:30:00
10:00 PM,41.0,39.2,93,30.36,-9999.0,Variable,2.3,-,N/A,,Clear,0,2013-01-09 21:00:00
10:30 PM,39.2,37.4,93,30.36,-9999.0,Variable,2.3,-,N/A,,Clear,0,2013-01-09 21:30:00
11:00 PM,39.2,37.4,93,30.36,-9999.0,Calm,Calm,-,N/A,,Clear,0,2013-01-09 22:00:00